Dewpoint
53 52 52 52 52 52 52 51 51 51 51 51 50 51 50 52 49 44 43 45 44 44 42 35 33 37 35 40 48 44 38 33 31 28 25 31 30 31 31 36 45 48 47 51 61
52 52 52 52 52 51 51 51 51 50 50 50 50 50 49 50 41 44 51 47 46 44 33 32 30 36 33 31 41 44 36 32 34 32 32 36 35 34 33 33 38 47 49 55 61
52 52 51 51 51 51 51 51 50 48 49 49 49 50 48 45 36 41 48 48 44 40 33 33 32 30 34 38 31 36 34 33 34 33 36 35 36 38 36 34 34 33 36 51 59
52 51 51 51 51 50 50 49 47 48 49 49 49 49 47 37 22 39 47 48 46 37 33 32 31 30 28 26 34 29 30 28 29 28 30 30 35 34 37 38 38 33 37 41 57
52 51 51 50 50 50 49 47 47 48 49 48 48 47 34 28 29 33 45 41 31 31 31 31 30 30 27 27 28 28 27 27 28 32 31 31 30 31 35 37 39 41 50 47 54
51 50 50 50 50 49 48 46 46 47 46 47 47 45 28 22 29 34 35 34 29 30 31 32 30 31 29 29 28 29 29 29 31 31 30 28 28 29 31 38 37 38 45 52 54
51 50 50 50 49 49 45 47 45 45 46 43 47 39 25 25 34 36 33 31 30 30 29 32 32 32 31 30 32 32 31 30 29 30 29 29 27 26 28 33 34 36 42 52 56
51 50 50 50 49 45 45 46 43 44 43 46 43 34 26 33 34 28 29 30 31 30 31 32 34 33 32 33 32 31 30 24 24 25 27 28 20 24 26 29 33 34 43 48 54
50 50 49 49 49 43 46 43 39 43 44 40 29 23 19 28 25 28 30 30 31 33 35 34 35 33 35 30 28 29 22 23 23 26 25 28 23 26 27 31 33 37 43 47 52
50 50 49 49 48 42 45 37 35 33 31 26 29 15 20 22 28 30 29 34 33 34 33 34 33 30 31 28 19 19 22 22 22 24 28 25 25 27 28 29 30 34 41 47 50
50 49 49 49 45 41 37 30 26 19 28 26 27 25 24 29 30 26 35 32 33 31 27 30 28 23 24 27 29 28 27 25 24 25 26 27 27 26 29 30 35 39 43 46 49
50 49 48 49 41 40 34 33 32 32 22 28 28 29 30 31 26 24 32 29 31 26 27 26 21 24 27 28 29 30 26 25 24 26 27 26 26 28 30 31 34 38 42 46 47
50 49 48 48 41 34 30 32 35 35 23 14 16 24 22 25 23 23 31 30 31 26 26 25 24 27 29 29 29 28 27 25 24 27 28 29 26 26 33 38 39 42 44 48 46
49 49 48 44 27 30 28 32 38 33 17 4 13 19 22 25 22 25 32 34 28 25 26 26 27 27 27 27 30 24 27 26 27 28 22 31 18 26 32 35 37 40 44 47 46
49 48 47 38 27 25 29 33 38 27 0 6 16 23 24 22 22 22 29 27 27 25 27 19 25 24 26 29 31 26 31 31 31 28 25 26 23 26 33 32 36 37 39 41 44
49 47 45 37 28 29 34 35 24 16 -4 10 20 21 22 23 22 24 25 27 27 22 22 25 27 28 30 32 32 33 32 31 30 24 17 24 23 20 24 28 30 36 36 37 38
49 46 41 35 28 33 35 25 16 10 10 12 18 22 22 22 21 21 22 18 18 12 12 17 18 21 33 29 28 29 24 12 13 14 16 26 19 21 27 30 32 33 34 34 36
48 41 36 32 34 33 23 18 -0 9 15 20 22 22 18 21 19 20 19 18 21 21 17 14 12 18 21 30 29 28 28 20 12 14 17 21 15 21 30 33 33 33 34 34 33
39 34 30 33 34 25 20 10 5 9 17 22 20 17 16 20 18 17 11 16 21 20 17 11 13 18 22 29 30 27 24 27 23 21 14 20 22 26 25 28 31 31 31 32 32
33 29 28 33 27 22 20 13 17 20 22 23 17 20 17 19 16 15 10 18 21 20 24 20 13 16 20 25 27 28 27 21 22 14 10 19 19 18 21 22 28 28 28 30 31
30 22 25 30 24 20 12 12 19 20 23 23 19 19 20 16 13 15 9 18 23 22 22 23 18 14 19 23 23 25 22 23 22 22 16 16 18 25 23 24 24 26 27 28 29
28 33 28 24 19 18 16 19 21 20 24 25 25 22 22 21 8 17 10 17 24 24 21 24 19 10 15 19 19 30 24 23 19 19 18 18 18 25 25 25 25 25 26 28 29
30 28 31 21 14 12 18 18 21 20 21 22 21 24 23 20 11 17 19 24 24 24 24 23 9 8 9 14 19 21 23 24 21 19 14 12 17 23 24 25 26 25 26 26 28
35 34 30 27 22 16 15 16 19 22 21 22 22 22 20 18 20 18 19 22 22 25 26 22 17 11 9 13 21 15 21 21 16 16 13 16 17 20 22 23 24 24 24 24 26
35 30 28 29 21 17 13 17 19 18 21 22 21 21 16 9 15 15 19 21 21 24 19 14 11 11 15 16 19 21 19 19 13 18 13 16 15 19 22 23 23 22 22 23 25
33 32 29 25 21 18 16 13 18 19 17 18 16 21 20 16 13 8 18 20 19 21 9 10 8 13 9 17 13 18 17 18 19 19 18 17 18 21 23 20 18 13 12 18 20
37 34 34 26 22 15 15 17 19 19 17 19 20 19 19 21 22 21 20 24 25 23 13 8 8 10 5 11 4 8 10 17 18 18 19 17 20 21 21 22 22 18 11 13 20
Lifted_Index
13 13 13 13 13 12 12 12 12 12 12 12 11 11 12 12 12 11 11 11 12 13 15 15 15 15 13 11 8 7 6 5 5 6 7 8 8 8 8 7 5 4 3 1 -1
13 13 13 13 13 12 12 12 12 12 12 12 11 11 12 12 12 11 11 11 12 13 15 15 15 14 13 12 10 8 6 6 7 7 8 8 8 8 8 7 6 5 4 1 -1
12 13 13 13 13 12 12 12 12 12 12 12 11 12 12 12 12 12 11 12 13 14 15 15 15 14 13 12 11 10 8 9 9 9 9 8 8 7 7 7 7 6 5 2 -0
12 13 13 13 13 13 13 13 13 12 12 12 12 12 13 12 12 12 13 13 14 15 15 15 15 14 13 12 12 12 11 12 12 11 10 9 8 8 7 7 7 6 5 4 1
12 13 13 13 13 13 13 14 13 13 12 12 12 13 13 13 13 14 14 14 15 15 15 15 14 14 13 13 13 13 13 13 12 11 10 9 9 8 8 7 7 6 5 3 1
12 13 13 13 13 14 14 14 14 13 13 12 12 13 14 13 14 15 15 15 15 15 14 14 13 13 13 13 13 12 12 11 9 8 7 7 7 8 8 7 7 6 4 2 0
12 12 13 13 14 14 15 14 14 14 13 13 13 14 14 14 15 15 15 15 15 14 14 13 13 12 12 12 11 10 8 7 6 5 5 5 6 6 6 6 6 6 4 1 -1
11 11 12 13 14 15 15 15 14 14 13 13 14 14 14 15 15 15 15 15 14 13 13 12 12 12 11 10 9 7 5 4 4 3 3 4 4 5 5 5 5 4 3 1 -1
10 11 12 12 13 15 15 15 15 14 14 14 14 14 14 15 15 14 14 14 13 12 12 11 11 10 9 7 5 4 3 3 3 3 2 3 3 3 3 3 3 3 3 1 -0
10 11 12 13 14 15 15 15 14 14 14 14 14 14 14 14 14 14 14 13 12 11 11 10 10 8 6 4 3 3 3 3 2 2 2 2 2 2 2 2 2 2 2 1 -0
10 11 12 13 14 15 15 14 13 13 13 14 14 14 15 14 14 13 13 12 11 10 10 9 8 6 4 3 3 3 3 3 2 2 2 2 2 1 1 1 1 1 1 0 -0
11 12 13 14 15 16 15 14 13 13 12 13 14 15 15 14 13 13 13 12 11 10 9 8 6 4 3 3 2 2 2 3 3 2 2 2 1 1 0 0 1 0 -0 -1 -1
11 12 13 14 15 16 15 15 15 13 12 12 14 14 14 14 13 13 13 12 10 9 8 6 4 3 2 2 2 2 2 3 2 2 1 1 1 0 -0 -0 0 0 -0 -1 -1
11 12 14 15 15 15 15 15 15 13 10 10 12 14 14 13 13 13 13 11 10 9 7 5 3 2 2 2 2 2 2 2 2 1 1 1 1 0 -0 -0 -0 -0 -0 -0 -0
11 12 14 15 15 15 15 15 14 11 7 8 11 13 13 13 13 13 13 11 10 8 6 4 2 2 2 2 2 1 1 2 1 1 0 1 1 0 -0 -0 -0 -0 -0 0 1
10 12 14 15 15 15 16 15 12 7 5 7 10 12 12 12 12 12 12 11 9 7 5 3 2 2 2 1 1 1 1 1 1 1 0 1 1 0 0 -0 -0 -0 0 1 1
9 11 14 15 15 16 15 12 7 5 5 7 9 11 11 11 12 12 11 10 9 7 4 2 2 2 2 1 1 1 1 1 1 0 0 0 0 1 1 1 0 0 0 1 1
8 10 13 15 15 15 13 8 4 4 6 8 9 10 10 11 11 11 10 10 9 6 3 2 1 2 2 2 1 1 1 1 0 0 1 1 1 1 1 1 1 1 1 0 0
7 8 11 14 15 14 9 5 4 6 8 9 9 9 10 11 11 10 10 10 9 7 4 2 2 2 2 2 2 1 1 1 1 1 1 1 1 1 1 1 1 1 1 1 1
6 7 9 13 14 11 7 4 5 9 10 10 9 9 9 10 10 10 9 9 8 6 5 3 2 1 1 2 2 1 1 1 1 1 0 0 1 1 1 1 1 1 1 1 1
5 5 9 11 11 8 5 5 7 11 12 11 10 10 10 10 10 9 9 8 7 6 5 3 2 1 1 2 2 2 1 1 1 1 0 0 1 1 1 1 1 1 1 1 1
4 5 8 9 8 5 4 6 9 11 12 12 11 11 11 10 9 9 9 8 7 6 4 4 2 1 1 2 2 2 1 1 1 1 1 1 1 2 2 1 1 1 1 1 2
4 5 7 7 5 4 4 6 8 10 12 12 12 12 11 10 9 9 9 8 7 6 5 4 3 1 1 1 2 2 1 1 1 1 1 1 1 2 3 2 2 2 2 2 2
4 4 5 5 4 4 4 5 7 9 11 12 12 12 11 10 9 8 8 8 7 6 5 4 3 2 1 1 1 1 1 1 1 1 1 1 2 2 3 3 3 3 3 3 3
4 4 4 4 4 4 4 5 6 8 10 11 12 11 11 9 9 8 8 7 6 6 5 4 3 2 2 2 2 1 1 1 1 1 1 1 2 2 3 3 4 4 4 4 4
4 4 3 3 4 4 4 5 5 7 9 11 11 11 11 10 9 8 8 7 6 5 5 4 3 3 2 2 2 2 1 1 1 1 1 1 2 2 3 3 4 4 4 4 4
4 4 3 3 3 4 4 5 6 7 10 11 11 11 11 10 10 9 8 7 6 5 5 4 3 3 2 2 2 2 2 2 2 1 1 1 2 2 3 3 4 4 5 5 5